sat.trackr.live / text

‹ back to catalog

ZHONGXING-26

NORAD 55686 · 2023-023A

PAYLOAD ACTIVE UNKNOWN

§ Identity

Operator
Country
PRC
Launch date
2023-02-23
Launch site
XICLF
Launch vehicle
Mass (kg)
RCS (m²)

Purposes: comms

External: N2YO · Heavens-Above · Gunter

§ Orbital elements

Epoch: 2026-05-24T18:04:13.742112Z

Period
1,436.11 min
Inclination
0.0725°
Eccentricity
0.0004176
Mean motion
1.00270844 rev/d
Perigee alt
35,769.3 km
Apogee alt
35,804.5 km
Semi-major
42,165.0 km
B*
0.0000e+0
RAAN
75.2166°
Arg perigee
1.4002°
Mean anomaly
201.9001°
Rev number
1,199

§ Raw data

ZHONGXING-261 55686U 23023A   26144.75293683 -.00000357  00000+0  00000+0 0  99942 55686   0.0725  75.2166 0004176   1.4002 201.9001  1.00270844 11997

JSON: /api/v1/satellites/55686 · /tle

For live sub-satellite position, see the globe view (requires WebGL).

§ Visibility from observer

Set your observer location to see the next 7 days of passes ≥ 10°. The values pass through the URL so the page stays shareable.

No JS? Fill the form by hand. The geolocation button needs JavaScript.